Regional Weather Roundup
Issued by NWS Kansas City/Pleasant Hill, MO

Home | Current Version | Previous Version | Graphics & Text | Print | Product List | Glossary Off
Versions: 1 2 3 4 5 6 7 8 9 10 11 12 13 14 15 16 17 18 19 20 21 22 23 24 25 26 27 28 29 30 31 32 33 34 35 36 37 38 39 40 41 42 43 44 45 46 47 48 49 50

000
ASUS43 KEAX 251410
RWREAX

WEATHER ROUNDUP FOR EASTERN KANSAS AND NORTHWEST MISSOURI
NATIONAL WEATHER SERVICE KANSAS CITY/PLEASANT HILL MO
900 AM CDT TUE JUL 25 2017

KSZ040-057-103>105-MOZ028-029-037-043-251500-
...KANSAS CITY METROPOLITAN AREA...

CITY           SKY/WX    TMP DP  RH WIND       PRES   REMARKS
K.C. INTL      MOSUNNY   79  69  71 S10       30.08R
K.C. DOWNTOWN  SUNNY     80  69  69 S8        30.07S
LEES SUMMIT    SUNNY     78  69  73 S7        30.09S
OLATHE - IXD   MOSUNNY   78  69  73 SE7       30.09R
OLATHE - OJC   MOSUNNY   76  70  82 SE7       30.09R
LAWRENCE       SUNNY     77  71  82 SE6       30.08R

$$

MOZ001>008-011>017-020>025-030>033-038>040-044>046-053-054-251500-
...NORTHERN AND CENTRAL MISSOURI...

CITY           SKY/WX    TMP DP  RH WIND       PRES   REMARKS
ST. JOSEPH     SUNNY     78  69  73 S7        30.07R
MOSBY          SUNNY     73  64  73 SE8       30.08R
WARRENSBURG    SUNNY     75  68  78 SE5       30.09S
WHITEMAN AFB   NOT AVBL
CLINTON        SUNNY     77  70  78 E3        30.10S
SEDALIA        SUNNY     75  73  93 E8        30.11S
WARSAW         NOT AVBL
CHILLICOTHE      N/A     74  70  87 VRB5      30.10F
KIRKSVILLE     SUNNY     75  67  76 SE10      30.14R

$$

MOZ041-047>049-056>058-063>065-088>090-097-251500-
...EASTERN AND SOUTHERN MISSOURI...

CITY           SKY/WX    TMP DP  RH WIND       PRES   REMARKS
ST. LOUIS INTL MOSUNNY   79  67  66 E10       30.11S
SPIRIT OF STL  MOSUNNY   79  69  71 SE6       30.09S
COLUMBIA       SUNNY     75  70  84 E8        30.11R
JEFFERSON CITY SUNNY     75  72  90 SE5       30.10R
ROLLA          SUNNY     75  70  84 E6        30.11R
OSAGE BEACH    SUNNY     77  68  73 CALM      30.11R
SPRINGFIELD    SUNNY     82  73  74 SW5       30.10R
BRANSON        SUNNY     82  72  69 CALM      30.13R
JOPLIN         SUNNY     85  74  69 W3        30.10R HX  92
WEST PLAINS    SUNNY     82  72  71 VRB3      30.11S

$$

IAZ060-094-KSZ022-034>040-054-083-096-NEZ052-066-093-251500-
...KANSAS...SOUTHEAST NEBRASKA AND IOWA...

CITY           SKY/WX    TMP DP  RH WIND       PRES   REMARKS
TOPEKA         SUNNY     78  72  81 SE7       30.07R
MANHATTAN      SUNNY     81  72  74 S5        30.05R
EMPORIA        SUNNY     80  72  76 S6        30.08R
CHANUTE        SUNNY     81  72  74 MISG      30.09R
WICHITA        MOSUNNY   81  72  74 S10       30.06S
OMAHA          SUNNY     78  66  66 S21       30.02S
LINCOLN        SUNNY     80  71  74 S10       30.01S
FALLS CITY     SUNNY     77  68  73 S10       30.05R
LAMONI           N/A     73  68  84 SE10G17   30.10
DES MOINES     MOSUNNY   74  67  78 SE12      30.08F

$$




USA.gov is the U.S. government's official web portal to all federal, state and local government web resources and services.